Time,TemperatureF,DewpointF,PressureIn,WindDirection,WindDirectionDegrees,WindSpeedMPH,WindSpeedGustMPH,Humidity,HourlyPrecipIn,Conditions,Clouds,dailyrainin,SolarRadiationWatts/m^2,SoftwareType,DateUTC
2013-06-05 00:10:00,76.2,74.0,30.00,ESE,104,1.0,6.0,94,0.00,,,0.00,0,weatherlink.com 1.10,2013-06-05 04:10:00,
2013-06-05 00:25:00,76.1,74.0,30.00,ESE,111,3.0,7.0,94,0.00,,,0.00,0,weatherlink.com 1.10,2013-06-05 04:25:00,
2013-06-05 00:40:00,75.8,74.0,30.00,ESE,103,2.0,6.0,95,0.01,,,0.01,0,weatherlink.com 1.10,2013-06-05 04:40:00,
2013-06-05 01:10:00,75.8,74.0,29.98,ESE,105,0.0,7.0,95,0.01,,,0.01,0,weatherlink.com 1.10,2013-06-05 05:10:00,
2013-06-05 01:25:00,75.8,74.0,29.98,SE,126,1.0,8.0,95,0.00,,,0.01,0,weatherlink.com 1.10,2013-06-05 05:25:00,
2013-06-05 01:40:00,75.9,74.0,29.98,East,85,2.0,7.0,95,0.00,,,0.01,0,weatherlink.com 1.10,2013-06-05 05:40:00,
2013-06-05 01:55:00,75.9,74.0,29.97,East,80,0.0,8.0,95,0.00,,,0.01,0,weatherlink.com 1.10,2013-06-05 05:55:00,
2013-06-05 02:10:00,75.8,74.0,29.98,East,95,0.0,6.0,95,0.00,,,0.01,0,weatherlink.com 1.10,2013-06-05 06:10:00,
2013-06-05 02:40:00,75.8,74.0,29.97,ESE,110,2.0,7.0,95,0.00,,,0.01,0,weatherlink.com 1.10,2013-06-05 06:40:00,
2013-06-05 02:55:00,75.7,74.0,29.96,East,100,3.0,6.0,95,0.00,,,0.01,0,weatherlink.com 1.10,2013-06-05 06:55:00,
2013-06-05 03:10:00,75.7,74.0,29.96,East,100,1.0,3.0,95,0.00,,,0.01,0,weatherlink.com 1.10,2013-06-05 07:10:00,
2013-06-05 03:40:00,75.8,74.0,29.96,ESE,118,4.0,6.0,94,0.00,,,0.01,0,weatherlink.com 1.10,2013-06-05 07:40:00,
2013-06-05 03:55:00,75.9,74.0,29.96,SE,142,1.0,3.0,94,0.00,,,0.01,0,weatherlink.com 1.10,2013-06-05 07:55:00,
2013-06-05 04:10:00,75.7,74.0,29.96,SE,143,0.0,5.0,95,0.03,,,0.04,0,weatherlink.com 1.10,2013-06-05 08:10:00,
2013-06-05 04:25:00,75.5,74.0,29.96,East,80,0.0,7.0,95,0.04,,,0.05,0,weatherlink.com 1.10,2013-06-05 08:25:00,
2013-06-05 04:40:00,75.5,74.0,29.96,SSE,150,3.0,7.0,96,0.04,,,0.05,0,weatherlink.com 1.10,2013-06-05 08:40:00,
2013-06-05 04:55:00,75.5,74.0,29.96,East,94,3.0,5.0,96,0.04,,,0.05,0,weatherlink.com 1.10,2013-06-05 08:55:00,
2013-06-05 05:40:00,75.4,74.0,29.97,ESE,113,3.0,7.0,96,0.00,,,0.05,0,weatherlink.com 1.10,2013-06-05 09:40:00,
2013-06-05 05:55:00,75.4,74.0,29.97,ESE,103,2.0,3.0,95,0.00,,,0.05,7,weatherlink.com 1.10,2013-06-05 09:55:00,
2013-06-05 06:10:00,75.6,74.0,29.98,East,92,0.0,6.0,95,0.00,,,0.05,26,weatherlink.com 1.10,2013-06-05 10:10:00,
2013-06-05 06:25:00,75.8,74.0,29.98,ESE,113,1.0,7.0,95,0.00,,,0.05,54,weatherlink.com 1.10,2013-06-05 10:25:00,
2013-06-05 06:40:00,76.1,74.0,29.99,East,99,2.0,8.0,94,0.00,,,0.05,84,weatherlink.com 1.10,2013-06-05 10:40:00,
2013-06-05 06:55:00,76.6,75.0,29.99,ENE,76,3.0,8.0,93,0.00,,,0.05,102,weatherlink.com 1.10,2013-06-05 10:55:00,
2013-06-05 07:10:00,77.4,75.0,29.99,SSE,153,0.0,7.0,91,0.00,,,0.05,171,weatherlink.com 1.10,2013-06-05 11:10:00,
2013-06-05 07:26:00,77.8,75.0,30.00,ESE,121,0.0,7.0,91,0.00,,,0.05,216,weatherlink.com 1.10,2013-06-05 11:26:00,
2013-06-05 07:41:00,78.9,76.0,30.00,East,86,6.0,7.0,89,0.00,,,0.05,264,weatherlink.com 1.10,2013-06-05 11:41:00,
2013-06-05 07:56:00,79.4,75.0,30.00,East,98,2.0,8.0,87,0.00,,,0.05,316,weatherlink.com 1.10,2013-06-05 11:56:00,
2013-06-05 08:11:00,80.0,76.0,30.01,East,80,1.0,7.0,88,0.00,,,0.05,388,weatherlink.com 1.10,2013-06-05 12:11:00,
2013-06-05 08:26:00,80.5,76.0,30.01,East,101,2.0,10.0,87,0.00,,,0.05,401,weatherlink.com 1.10,2013-06-05 12:26:00,
2013-06-05 08:41:00,80.2,76.0,30.01,East,95,1.0,13.0,86,0.00,,,0.05,329,weatherlink.com 1.10,2013-06-05 12:41:00,
2013-06-05 09:11:00,80.1,75.0,30.01,ESE,105,0.0,10.0,85,0.00,,,0.05,272,weatherlink.com 1.10,2013-06-05 13:11:00,
2013-06-05 09:26:00,80.7,76.0,30.01,ESE,111,2.0,6.0,85,0.00,,,0.05,503,weatherlink.com 1.10,2013-06-05 13:26:00,
2013-06-05 09:41:00,80.6,75.0,30.01,ESE,106,5.0,11.0,84,0.00,,,0.05,485,weatherlink.com 1.10,2013-06-05 13:41:00,
2013-06-05 09:56:00,80.5,76.0,30.00,East,80,1.0,10.0,85,0.00,,,0.05,327,weatherlink.com 1.10,2013-06-05 13:56:00,
2013-06-05 10:11:00,81.0,76.0,30.00,ENE,74,1.0,9.0,84,0.00,,,0.05,471,weatherlink.com 1.10,2013-06-05 14:11:00,
2013-06-05 10:26:00,81.4,75.0,30.00,East,100,2.0,9.0,82,0.00,,,0.05,341,weatherlink.com 1.10,2013-06-05 14:26:00,
2013-06-05 10:41:00,82.2,76.0,30.00,East,97,5.0,9.0,80,0.00,,,0.05,346,weatherlink.com 1.10,2013-06-05 14:41:00,
2013-06-05 10:56:00,82.9,75.0,29.99,East,92,7.0,13.0,78,0.00,,,0.05,951,weatherlink.com 1.10,2013-06-05 14:56:00,
2013-06-05 11:11:00,83.9,77.0,30.00,ENE,76,4.0,8.0,79,0.00,,,0.05,997,weatherlink.com 1.10,2013-06-05 15:11:00,
2013-06-05 11:26:00,83.3,76.0,30.00,ESE,102,1.0,11.0,78,0.00,,,0.05,1039,weatherlink.com 1.10,2013-06-05 15:26:00,
2013-06-05 11:41:00,83.6,76.0,29.98,ESE,109,2.0,12.0,77,0.00,,,0.05,1065,weatherlink.com 1.10,2013-06-05 15:41:00,
2013-06-05 11:56:00,83.7,76.0,29.99,SE,127,2.0,18.0,78,0.00,,,0.05,504,weatherlink.com 1.10,2013-06-05 15:56:00,
2013-06-05 12:11:00,83.5,76.0,29.98,ESE,105,3.0,8.0,77,0.00,,,0.05,1095,weatherlink.com 1.10,2013-06-05 16:11:00,
2013-06-05 12:26:00,83.6,75.0,29.98,ENE,58,8.0,13.0,76,0.00,,,0.05,1099,weatherlink.com 1.10,2013-06-05 16:26:00,
2013-06-05 12:41:00,84.1,75.0,29.97,SE,127,0.0,10.0,74,0.00,,,0.05,976,weatherlink.com 1.10,2013-06-05 16:41:00,
2013-06-05 13:11:00,82.7,75.0,29.96,SSE,158,3.0,15.0,78,0.00,,,0.05,965,weatherlink.com 1.10,2013-06-05 17:11:00,
2013-06-05 13:26:00,83.2,76.0,29.95,ESE,104,3.0,16.0,78,0.00,,,0.05,942,weatherlink.com 1.10,2013-06-05 17:26:00,
2013-06-05 13:41:00,84.0,75.0,29.95,ENE,65,4.0,12.0,75,0.00,,,0.05,956,weatherlink.com 1.10,2013-06-05 17:41:00,
2013-06-05 14:11:00,82.3,74.0,29.93,SE,137,4.0,12.0,76,0.00,,,0.05,536,weatherlink.com 1.10,2013-06-05 18:11:00,
2013-06-05 14:26:00,82.1,75.0,29.93,East,84,6.0,13.0,79,0.00,,,0.05,487,weatherlink.com 1.10,2013-06-05 18:26:00,
2013-06-05 14:42:00,83.6,75.0,29.92,East,91,3.0,10.0,75,0.00,,,0.05,599,weatherlink.com 1.10,2013-06-05 18:42:00,
2013-06-05 14:57:00,82.7,74.0,29.93,East,80,2.0,10.0,76,0.00,,,0.05,318,weatherlink.com 1.10,2013-06-05 18:57:00,
2013-06-05 15:11:00,82.2,74.0,29.92,East,82,5.0,12.0,77,0.00,,,0.05,381,weatherlink.com 1.10,2013-06-05 19:11:00,
2013-06-05 15:27:00,82.3,74.0,29.92,East,85,0.0,14.0,76,0.00,,,0.05,503,weatherlink.com 1.10,2013-06-05 19:27:00,
2013-06-05 15:42:00,82.8,75.0,29.92,ESE,122,2.0,9.0,77,0.00,,,0.05,624,weatherlink.com 1.10,2013-06-05 19:42:00,
2013-06-05 15:57:00,82.7,74.0,29.91,East,91,2.0,10.0,75,0.00,,,0.05,554,weatherlink.com 1.10,2013-06-05 19:57:00,
2013-06-05 16:13:00,82.1,72.0,29.91,East,98,5.0,10.0,72,0.00,,,0.05,232,weatherlink.com 1.10,2013-06-05 20:13:00,
2013-06-05 16:27:00,82.2,73.0,29.91,SE,128,2.0,7.0,74,0.00,,,0.05,374,weatherlink.com 1.10,2013-06-05 20:27:00,
2013-06-05 16:42:00,81.9,72.0,29.91,ENE,57,8.0,13.0,73,0.00,,,0.05,396,weatherlink.com 1.10,2013-06-05 20:42:00,
2013-06-05 16:58:00,81.3,73.0,29.90,ESE,105,7.0,13.0,76,0.00,,,0.05,267,weatherlink.com 1.10,2013-06-05 20:58:00,
2013-06-05 17:13:00,81.4,72.0,29.90,SSE,164,1.0,9.0,74,0.00,,,0.05,294,weatherlink.com 1.10,2013-06-05 21:13:00,
2013-06-05 17:27:00,81.1,73.0,29.90,ESE,103,3.0,11.0,77,0.00,,,0.05,227,weatherlink.com 1.10,2013-06-05 21:27:00,
2013-06-05 17:42:00,80.7,73.0,29.91,East,96,6.0,8.0,77,0.00,,,0.05,179,weatherlink.com 1.10,2013-06-05 21:42:00,
2013-06-05 17:58:00,80.2,74.0,29.91,SE,126,2.0,9.0,80,0.00,,,0.05,125,weatherlink.com 1.10,2013-06-05 21:58:00,
2013-06-05 18:28:00,79.1,74.0,29.92,East,89,2.0,9.0,83,0.00,,,0.05,39,weatherlink.com 1.10,2013-06-05 22:28:00,
2013-06-05 18:43:00,78.8,74.0,29.92,SE,138,4.0,8.0,84,0.00,,,0.05,11,weatherlink.com 1.10,2013-06-05 22:43:00,
2013-06-05 18:58:00,78.4,74.0,29.92,SSE,162,0.0,8.0,87,0.00,,,0.05,0,weatherlink.com 1.10,2013-06-05 22:58:00,
2013-06-05 19:14:00,78.1,74.0,29.92,ESE,117,0.0,5.0,88,0.00,,,0.05,0,weatherlink.com 1.10,2013-06-05 23:14:00,
2013-06-05 19:28:00,77.7,74.0,29.93,SE,134,1.0,5.0,89,0.00,,,0.05,0,weatherlink.com 1.10,2013-06-05 23:28:00,
2013-06-05 19:43:00,77.3,74.0,29.93,SSE,159,2.0,9.0,89,0.00,,,0.05,0,weatherlink.com 1.10,2013-06-05 23:43:00,
2013-06-05 19:58:00,77.1,74.0,29.93,NE,55,5.0,9.0,89,0.00,,,0.05,0,weatherlink.com 1.10,2013-06-05 23:58:00,
2013-06-05 20:14:00,77.0,74.0,29.94,ESE,103,0.0,5.0,89,0.00,,,0.05,0,weatherlink.com 1.10,2013-06-06 00:14:00,
2013-06-05 20:28:00,76.9,74.0,29.95,ESE,117,0.0,9.0,90,0.00,,,0.05,0,weatherlink.com 1.10,2013-06-06 00:28:00,
2013-06-05 20:43:00,76.8,74.0,29.95,East,92,0.0,8.0,90,0.00,,,0.05,0,weatherlink.com 1.10,2013-06-06 00:43:00,
2013-06-05 20:59:00,76.7,74.0,29.95,ESE,111,0.0,5.0,90,0.00,,,0.05,0,weatherlink.com 1.10,2013-06-06 00:59:00,
2013-06-05 21:14:00,76.7,74.0,29.95,ESE,115,2.0,7.0,90,0.00,,,0.05,0,weatherlink.com 1.10,2013-06-06 01:14:00,
2013-06-05 21:29:00,76.6,74.0,29.96,East,84,1.0,5.0,91,0.00,,,0.05,0,weatherlink.com 1.10,2013-06-06 01:29:00,
2013-06-05 21:44:00,76.4,74.0,29.96,ENE,74,3.0,7.0,91,0.00,,,0.05,0,weatherlink.com 1.10,2013-06-06 01:44:00,
2013-06-05 21:59:00,76.4,74.0,29.96,SE,124,2.0,7.0,91,0.00,,,0.05,0,weatherlink.com 1.10,2013-06-06 01:59:00,
2013-06-05 22:14:00,76.2,74.0,29.97,East,90,0.0,7.0,91,0.00,,,0.05,0,weatherlink.com 1.10,2013-06-06 02:14:00,
2013-06-05 22:29:00,76.1,73.0,29.97,East,96,1.0,5.0,91,0.00,,,0.05,0,weatherlink.com 1.10,2013-06-06 02:29:00,
2013-06-05 22:44:00,76.1,73.0,29.97,ESE,113,0.0,8.0,90,0.00,,,0.05,0,weatherlink.com 1.10,2013-06-06 02:44:00,
2013-06-05 22:59:00,76.1,73.0,29.97,East,84,2.0,5.0,90,0.00,,,0.05,0,weatherlink.com 1.10,2013-06-06 02:59:00,
2013-06-05 23:14:00,76.0,73.0,29.97,ENE,78,0.0,7.0,89,0.00,,,0.05,0,weatherlink.com 1.10,2013-06-06 03:14:00,
2013-06-05 23:29:00,76.0,73.0,29.97,ESE,111,0.0,4.0,90,0.00,,,0.05,0,weatherlink.com 1.10,2013-06-06 03:29:00,
2013-06-05 23:44:00,75.8,73.0,29.97,ESE,111,1.0,2.0,90,0.00,,,0.05,0,weatherlink.com 1.10,2013-06-06 03:44:00,
2013-06-05 23:59:00,75.6,73.0,29.97,ESE,111,0.0,3.0,90,0.00,,,0.05,0,weatherlink.com 1.10,2013-06-06 03:59:00,